TimeCST,TemperatureF,Dew PointF,Humidity,Sea Level PressureIn,VisibilityMPH,Wind Direction,Wind SpeedMPH,Gust SpeedMPH,PrecipitationIn,Events,Conditions,WindDirDegrees,DateUTC
12:55 AM,51.3,50.4,97,30.12,10.0,North,4.6,-,N/A,,Partly Cloudy,350,2012-11-21 06:55:00
1:55 AM,48.2,47.7,98,30.12,10.0,North,4.6,-,N/A,,Clear,360,2012-11-21 07:55:00
2:55 AM,47.5,47.3,99,30.13,10.0,North,6.9,-,N/A,,Clear,360,2012-11-21 08:55:00
3:55 AM,47.3,47.1,99,30.13,10.0,North,5.8,-,N/A,,Clear,360,2012-11-21 09:55:00
4:55 AM,45.9,45.5,99,30.13,10.0,North,5.8,-,N/A,,Clear,360,2012-11-21 10:55:00
5:55 AM,45.5,45.1,99,30.14,10.0,North,5.8,-,N/A,,Clear,360,2012-11-21 11:55:00
6:55 AM,47.1,46.8,99,30.17,10.0,North,6.9,-,N/A,,Clear,350,2012-11-21 12:55:00
7:55 AM,53.4,51.8,94,30.18,10.0,North,8.1,-,N/A,,Clear,360,2012-11-21 13:55:00
8:55 AM,62.6,51.6,67,30.19,10.0,North,9.2,-,N/A,,Clear,360,2012-11-21 14:55:00
9:55 AM,68.7,51.3,54,30.18,10.0,North,8.1,-,N/A,,Clear,360,2012-11-21 15:55:00
10:13 AM,69.8,51.8,53,30.18,10.0,Variable,4.6,-,N/A,,Light Drizzle,0,2012-11-21 16:13:00
10:36 AM,71.6,51.8,50,30.17,10.0,NNE,8.1,-,N/A,,Clear,20,2012-11-21 16:36:00
10:50 AM,71.6,51.8,50,30.16,10.0,North,8.1,-,N/A,,Light Drizzle,10,2012-11-21 16:50:00
10:55 AM,71.8,51.4,49,30.16,10.0,North,9.2,-,0.00,,Clear,360,2012-11-21 16:55:00
11:14 AM,71.6,51.8,50,30.15,10.0,NE,6.9,-,N/A,,Light Drizzle,40,2012-11-21 17:14:00
11:24 AM,73.4,51.8,47,30.14,10.0,NNE,8.1,-,N/A,,Clear,20,2012-11-21 17:24:00
11:37 AM,73.4,51.8,47,30.14,10.0,NE,5.8,-,N/A,,Light Drizzle,40,2012-11-21 17:37:00
11:38 AM,73.4,51.8,47,30.14,10.0,NNE,8.1,-,N/A,,Clear,30,2012-11-21 17:38:00
11:46 AM,73.4,51.8,47,30.14,10.0,NE,6.9,-,N/A,,Light Drizzle,40,2012-11-21 17:46:00
11:47 AM,73.4,51.8,47,30.14,10.0,NNE,6.9,-,N/A,,Clear,30,2012-11-21 17:47:00
11:55 AM,73.0,52.2,48,30.13,10.0,North,8.1,-,0.00,,Clear,10,2012-11-21 17:55:00
12:13 PM,73.4,51.8,47,30.13,10.0,NNW,8.1,-,N/A,,Light Drizzle,340,2012-11-21 18:13:00
12:25 PM,73.4,51.8,47,30.12,10.0,North,12.7,-,N/A,,Clear,10,2012-11-21 18:25:00
12:35 PM,73.4,51.8,47,30.12,10.0,North,8.1,-,N/A,Rain,Light Rain,360,2012-11-21 18:35:00
12:40 PM,73.4,51.8,47,30.12,10.0,Variable,6.9,-,N/A,,Clear,0,2012-11-21 18:40:00
12:51 PM,73.4,51.8,47,30.12,10.0,NNW,9.2,-,N/A,Rain,Light Rain,340,2012-11-21 18:51:00
12:55 PM,73.8,52.3,47,30.12,10.0,North,6.9,-,0.00,,Light Drizzle,360,2012-11-21 18:55:00
1:03 PM,73.4,51.8,47,30.11,10.0,North,9.2,-,N/A,,Clear,350,2012-11-21 19:03:00
1:20 PM,73.4,51.8,47,30.10,10.0,NNE,11.5,-,N/A,,Light Drizzle,30,2012-11-21 19:20:00
1:29 PM,73.4,51.8,47,30.10,10.0,NNE,9.2,-,N/A,,Clear,20,2012-11-21 19:29:00
1:39 PM,73.4,51.8,47,30.10,10.0,North,9.2,-,N/A,,Light Drizzle,10,2012-11-21 19:39:00
1:45 PM,73.4,51.8,47,30.10,10.0,North,10.4,-,N/A,,Partly Cloudy,360,2012-11-21 19:45:00
1:46 PM,73.4,51.8,47,30.10,10.0,North,12.7,-,N/A,,Light Drizzle,360,2012-11-21 19:46:00
1:49 PM,73.4,51.8,47,30.10,10.0,North,11.5,-,N/A,,Scattered Clouds,360,2012-11-21 19:49:00
1:55 PM,73.2,51.6,47,30.10,10.0,North,10.4,-,0.00,,Partly Cloudy,10,2012-11-21 19:55:00
2:52 PM,73.4,51.8,47,30.09,10.0,North,8.1,-,N/A,Rain,Light Rain,360,2012-11-21 20:52:00
2:55 PM,73.6,52.2,47,30.09,10.0,North,10.4,-,0.00,Rain,Light Rain,10,2012-11-21 20:55:00
2:57 PM,73.4,51.8,47,30.09,10.0,North,11.5,-,N/A,,Partly Cloudy,10,2012-11-21 20:57:00
3:19 PM,71.6,51.8,50,30.09,10.0,North,9.2,-,N/A,,Light Drizzle,360,2012-11-21 21:19:00
3:37 PM,71.6,51.8,50,30.10,10.0,North,10.4,-,N/A,,Partly Cloudy,10,2012-11-21 21:37:00
3:55 PM,71.4,52.5,51,30.10,10.0,North,8.1,-,0.00,,Partly Cloudy,360,2012-11-21 21:55:00
4:55 PM,66.6,52.9,61,30.12,10.0,NNE,3.5,-,N/A,,Clear,20,2012-11-21 22:55:00
5:55 PM,61.7,52.7,72,30.13,10.0,Calm,Calm,-,N/A,,Clear,0,2012-11-21 23:55:00
6:55 PM,56.3,52.3,87,30.14,10.0,Calm,Calm,-,N/A,,Clear,0,2012-11-22 00:55:00
7:55 PM,52.7,50.2,91,30.16,10.0,North,3.5,-,N/A,,Clear,350,2012-11-22 01:55:00
8:55 PM,51.6,49.6,93,30.17,10.0,North,5.8,-,N/A,,Clear,360,2012-11-22 02:55:00
9:55 PM,50.7,48.9,94,30.17,10.0,North,3.5,-,N/A,,Clear,350,2012-11-22 03:55:00
10:55 PM,49.5,47.7,94,30.17,10.0,North,4.6,-,N/A,,Clear,10,2012-11-22 04:55:00
11:55 PM,49.1,47.3,93,30.17,10.0,North,4.6,-,N/A,,Clear,10,2012-11-22 05:55:00